Weather History for La Mesa, Honduras

Change the Weather History Date:

Tuesday, January 15, 2013

  Actual Average Record
Temperature  
Mean Temperature 78 °F -  
Max Temperature 86 °F 82 °F 87 °F (2007)
Min Temperature 69 °F 66 °F 64 °F (2000)
Cooling Degree Days 12    
Growing Degree Days 28 (Base 50)    
Moisture  
Dew Point 74 °F    
Average Humidity 91    
Maximum Humidity 100    
Minimum Humidity 61    
Precipitation  
Precipitation 0.00 in 0.09 in - ()
Sea Level Pressure  
Sea Level Pressure 29.93 in    
Wind  
Wind Speed 2 mph ()    
Max Wind Speed 15 mph    
Max Gust Speed -    
Visibility 6.5 miles    
Events      
Averages and records for this station are not official NWS values.
T = Trace of Precipitation, MM = Missing Value Source: Averaged Metar Reports

Daily Weather History Graph

Daily Weather History Graph

Search for Another Location

Airport:

Trip Planner

Search our weather history database for the weather conditions in past years. The results will help you decide how hot, cold, wet, or windy it might be!

Date:

Astronomy

Jan. 15, 2013 Rise Set
Actual Time 6:21 AM CST 5:40 PM CST
Civil Twilight 5:58 AM CST 6:03 PM CST
Nautical Twilight 5:32 AM CST 6:30 PM CST
Astronomical Twilight 5:06 AM CST 6:56 PM CST
Moon 9:14 AM CST (1/15) 9:37 PM CST (1/15)
Length of Visible Light 12h 04m
Length of Day
11h 18m
Waxing Crescent, 19% of the Moon is Illuminated
Jan 15
Waxing Crescent
Jan 18
First Quarter
Jan 26
Full
Feb 3
Last Quarter
Feb 10
New

Hourly Weather History & Observations

Time (CST) Temp. Heat Index Dew Point Humidity Pressure Visibility Wind Dir Wind Speed Gust Speed Precip Events Conditions
12:00 AM 73 °F - 73 °F 100% 29.96 in 7 mi Calm Calm - -   Haze
12:00 AM 73.4 °F - 73.4 °F 100% 29.95 in 6.2 mi Calm Calm - N/A   Scattered Clouds
1:00 AM 73.4 °F - 73.4 °F 100% 29.95 in 6.2 mi Calm Calm - N/A   Scattered Clouds
2:00 AM 69.8 °F - 69.8 °F 100% 29.95 in 6.2 mi SSW 2.3 mph - N/A   Partly Cloudy
3:00 AM 70 °F - 70 °F 100% 29.94 in 7 mi Calm Calm - -   Haze
3:00 AM 69.8 °F - 69.8 °F 100% 29.95 in 6.2 mi Calm Calm - N/A   Partly Cloudy
4:00 AM 69.8 °F - 69.8 °F 100% 29.92 in 6.2 mi SW 2.3 mph - N/A   Scattered Clouds
5:00 AM 69.8 °F - 69.8 °F 100% 29.95 in - SW 2.3 mph - N/A   Partly Cloudy
6:00 AM 70 °F - 70 °F 100% 29.95 in 7 mi South 2.3 mph - -   Haze
6:00 AM 69.8 °F - 69.8 °F 100% 29.95 in 6.2 mi South 2.3 mph - N/A   Partly Cloudy
7:00 AM 69.8 °F - 69.8 °F 100% 29.98 in 6.2 mi Calm Calm - N/A   Mostly Cloudy
8:00 AM 73.4 °F - 73.4 °F 100% 29.98 in 6.2 mi SSW 3.5 mph - N/A   Mostly Cloudy
9:00 AM 76 °F - 74 °F 91% 29.99 in 9 mi South 2.3 mph - -   Haze
9:00 AM 77.0 °F - 73.4 °F 89% 30.01 in 6.2 mi South 2.3 mph - N/A   Mostly Cloudy
10:00 AM 80.6 °F 86.2 °F 75.2 °F 84% 29.98 in 6.2 mi SSW 2.3 mph - N/A   Partly Cloudy
11:00 AM 84.2 °F 92.3 °F 75.2 °F 74% 29.95 in 6.2 mi SE 2.3 mph - N/A   Partly Cloudy
12:00 PM 85 °F - 74 °F 61% 29.91 in 9 mi NNE 4.6 mph - -   Haze
12:00 PM 86.0 °F 93.4 °F 73.4 °F 66% 29.92 in 6.2 mi NNE 4.6 mph - N/A   Scattered Clouds
1:00 PM 86.0 °F 93.4 °F 73.4 °F 66% 29.86 in 6.2 mi NNE 4.6 mph - N/A   Scattered Clouds
2:00 PM 84.2 °F 92.3 °F 75.2 °F 74% 29.86 in 6.2 mi NE 6.9 mph - N/A   Mostly Cloudy
3:00 PM 82.4 °F 90.9 °F 77.0 °F 84% 29.86 in 6.2 mi NNE 11.5 mph - N/A   Mostly Cloudy
4:00 PM 82.4 °F 90.9 °F 77.0 °F 84% 29.86 in 6.2 mi NNE 10.4 mph - N/A   Mostly Cloudy
5:00 PM 80.6 °F 87.1 °F 77.0 °F 89% 29.89 in 6.2 mi North 10.4 mph - N/A   Mostly Cloudy
6:00 PM 78.8 °F - 75.2 °F 89% 29.89 in 6.2 mi NNE 4.6 mph - N/A   Mostly Cloudy
7:00 PM 77.0 °F - 75.2 °F 94% 29.89 in 6.2 mi North 15.0 mph - N/A   Scattered Clouds
8:00 PM 77.0 °F - 77.0 °F 100% 29.92 in 6.2 mi NNW 3.5 mph - N/A   Mostly Cloudy
9:00 PM 77 °F - 76 °F 96% 29.92 in 6 mi North 4.6 mph - -   Haze
9:00 PM 77.0 °F - 77.0 °F 100% 29.92 in 6.2 mi North 4.6 mph - N/A   Mostly Cloudy
10:00 PM 77.0 °F - 75.2 °F 94% 29.92 in 6.2 mi Calm Calm - N/A   Mostly Cloudy
11:00 PM 75.2 °F - 75.2 °F 100% 29.92 in 6.2 mi ESE 3.5 mph - N/A   Mostly Cloudy